Location: Unspecified
(35.7250°N, 0.0000°E)
Time: 17:43:42
(UTC+00:00)

Vanguard 1 - Pass Details

Date: 30 June 2019
Orbit: 654 x 3829 km, 34.2° (Epoch: 25 August)

Event Time Altitude Azimuth Distance (km) Brightness Sun altitude
Rises 03:46:37 0° 273° (W) 7,729 14.2 -11.0°
Reaches altitude 10° 03:52:20 10° 273° (W) 6,421 13.8 -10.0°
Maximum altitude 04:11:17 82° 190° (S) 2,275 11.8 -7.0°
Drops below altitude 10° 04:21:16 10° 104° (ESE) 3,647 13.6 -5.3°
Sets 04:23:36 0° 103° (ESE) 4,339 14.1 -4.9°
